Theta_e
319 318 319 318 317 316 316 317 317 317 317 317 318 319 319 319 319 319 319 320 321 321 321 320 320 320 320 321 322 326 331 340 353 354 353 352 351 352 350 348 346 349 345 344
319 318 318 316 316 316 317 317 318 318 317 318 318 318 318 318 319 320 320 320 320 321 321 321 320 320 321 323 323 325 331 335 347 353 354 353 352 352 352 349 347 348 346 344
319 318 317 316 317 317 317 317 317 317 317 318 319 320 319 319 319 320 321 322 321 321 321 321 322 321 321 322 325 325 331 335 339 349 352 353 351 351 351 349 348 348 347 345
317 318 316 317 317 317 316 315 316 317 318 319 318 321 320 320 321 320 320 321 321 321 320 321 321 322 321 321 321 326 332 337 342 346 350 351 351 351 350 349 349 347 347 345
319 317 318 318 318 316 317 316 315 316 318 319 319 321 321 322 322 322 322 321 321 321 321 321 321 321 320 321 320 325 332 339 342 345 351 351 351 350 350 350 348 347 346 345
319 318 318 318 317 317 317 317 316 316 319 325 323 327 323 320 321 321 321 321 321 321 322 321 321 319 320 320 320 323 331 338 342 346 349 351 351 350 348 348 348 348 347 345
318 319 317 317 317 317 317 317 326 327 327 326 320 320 318 321 320 319 319 320 321 321 322 321 321 321 321 320 321 322 327 337 339 343 346 349 349 349 347 347 347 348 347 345
321 321 317 317 317 318 316 318 324 327 326 323 319 320 320 320 319 319 319 321 320 321 322 322 323 322 321 321 321 321 322 329 336 339 342 346 347 348 347 348 347 347 346 345
322 320 318 317 317 316 318 323 317 326 322 323 320 321 321 320 320 320 320 320 321 320 323 323 323 323 324 323 322 322 323 323 330 339 340 343 346 346 346 347 346 348 346 344
320 324 317 317 317 317 319 318 322 323 329 324 319 319 323 322 321 321 320 321 321 321 322 322 322 324 324 325 325 324 324 324 325 335 339 341 344 346 346 346 348 345 346 344
318 327 320 318 318 318 316 318 319 324 325 329 324 320 319 318 320 321 321 321 322 321 320 320 321 321 322 323 324 325 325 324 326 330 337 337 341 345 345 345 345 345 345 344
319 321 322 319 318 317 316 316 319 327 324 325 323 324 318 319 319 319 320 319 319 319 320 319 320 320 320 320 322 324 327 328 323 328 332 337 338 341 344 343 343 343 342 342
317 319 320 321 317 317 316 315 315 317 321 325 326 323 318 318 318 318 317 317 318 319 318 319 320 319 320 319 319 320 323 324 326 323 329 334 338 339 344 342 342 342 338 337
316 320 321 323 319 316 315 315 314 318 325 323 322 320 319 319 317 316 316 317 317 318 318 318 319 319 319 319 319 319 320 323 325 326 325 331 336 339 341 341 339 338 334 329
318 320 318 317 315 314 314 315 314 316 318 325 320 319 317 316 316 316 316 316 315 316 316 317 318 319 319 319 318 318 319 320 323 329 326 329 336 339 342 339 331 329 326 323
317 322 319 319 317 316 314 315 317 318 316 317 317 316 314 315 315 316 316 314 315 313 314 315 315 316 317 318 317 317 318 318 322 325 328 327 336 338 338 333 329 326 320 321
321 322 320 322 318 316 321 316 317 317 316 320 319 316 315 316 315 314 313 312 313 312 311 312 313 315 315 314 314 316 317 318 320 322 329 327 336 333 332 329 326 322 321 317
320 320 321 325 319 321 316 316 316 321 316 316 317 316 313 311 310 309 308 309 310 310 309 310 312 313 313 313 314 315 317 317 319 322 329 330 333 330 326 324 323 322 320 318
318 320 322 322 321 319 317 318 323 320 318 316 311 310 309 308 306 305 305 306 306 307 308 309 310 310 310 312 313 314 316 316 318 321 328 334 331 327 325 322 321 319 315 312
317 317 322 322 323 323 319 315 316 315 319 313 310 306 305 303 304 305 305 304 305 304 306 307 306 308 309 310 312 314 315 316 318 321 330 332 329 327 323 321 317 316 311 310
319 320 320 318 321 319 316 316 315 319 318 308 306 303 302 302 302 302 302 301 302 302 303 302 303 307 307 309 311 313 315 316 318 322 331 330 328 325 321 318 316 312 310 307
320 323 322 320 320 317 316 317 315 312 307 305 302 301 301 301 301 303 306 309 312 311 308 303 304 305 307 309 311 313 314 315 318 327 333 327 324 321 319 316 313 311 308 303
320 319 321 320 321 320 319 319 313 310 304 301 299 299 299 300 304 306 311 316 313 312 309 306 306 307 307 311 311 313 313 316 321 330 326 323 321 319 317 314 311 308 306 303
316 316 320 320 318 318 318 314 310 307 303 300 299 299 301 304 307 319 321 315 314 313 311 309 308 310 313 312 312 313 315 319 329 326 323 320 318 316 314 311 310 308 305 302
318 317 318 320 319 316 314 309 309 304 302 300 300 301 304 307 310 316 319 319 317 317 316 315 315 317 318 316 315 317 324 327 324 321 318 317 314 312 310 310 309 309 306 304
319 319 320 321 318 310 308 310 305 303 301 300 300 303 304 308 309 311 315 320 318 316 315 314 315 314 320 322 323 324 324 321 318 316 314 313 312 309 306 303 301 303 303 301
Wind_Speed
10 11 15 16 14 17 18 21 26 27 24 22 24 27 27 24 26 27 25 24 25 25 23 29 28 26 27 23 20 22 24 23 25 27 28 29 27 27 28 27 25 24 25 26
13 16 10 11 16 17 21 24 26 25 20 20 25 30 28 27 27 27 27 26 26 25 23 22 28 26 28 24 21 22 24 26 25 27 29 27 29 31 27 27 26 25 26 27
16 21 7 13 17 20 20 22 21 25 26 25 25 29 23 25 21 16 22 20 21 25 24 23 23 28 30 26 22 24 25 25 27 26 28 26 25 25 24 23 25 27 27 27
12 10 11 19 19 17 20 21 23 24 24 22 25 22 25 21 20 16 17 20 20 21 23 23 23 24 29 30 29 23 24 24 25 24 24 27 22 24 28 25 27 27 27 27
20 20 18 18 17 16 22 19 24 27 25 25 27 16 14 17 15 12 18 6 8 14 19 22 24 27 32 32 30 24 23 23 23 25 24 27 24 23 27 27 26 27 27 27
21 13 21 13 15 18 21 25 24 25 22 17 24 7 11 13 3 11 9 5 2 12 14 16 21 30 30 32 33 25 25 23 24 24 24 26 27 24 28 29 24 27 27 27
19 21 7 1 14 21 20 21 12 14 6 13 14 16 17 13 11 12 11 11 13 3 10 6 11 16 20 28 27 28 24 22 21 22 23 26 27 26 23 27 27 25 27 27
16 17 16 15 21 23 17 15 8 12 15 20 25 20 9 1 9 6 4 8 10 5 8 6 6 11 14 18 21 25 20 20 21 21 23 24 26 26 27 23 27 27 26 27
13 11 28 23 24 11 22 16 15 10 19 18 18 16 12 10 13 12 9 5 7 4 6 5 6 8 13 8 17 20 22 19 20 22 20 20 23 27 26 26 31 29 26 26
10 24 14 19 15 21 20 16 8 7 7 14 17 20 7 9 6 13 3 10 1 3 5 4 2 6 7 8 7 10 9 17 22 22 22 20 21 23 25 26 26 25 22 23
18 4 17 21 21 24 16 10 1 4 10 6 14 9 12 21 15 18 20 6 24 5 9 6 1 3 1 4 7 4 12 16 21 24 23 21 21 21 24 25 26 24 24 23
6 7 16 25 25 25 16 12 11 5 10 14 15 20 21 9 21 20 18 18 17 17 10 11 11 6 4 3 5 4 6 9 19 22 23 23 20 19 23 25 23 20 22 23
5 3 10 13 11 11 17 19 23 22 19 21 16 16 18 22 21 17 19 20 23 21 17 19 18 12 8 5 6 7 5 8 13 20 24 22 20 16 20 22 21 22 25 32
11 9 12 14 23 22 25 25 25 21 6 20 20 28 24 21 22 24 25 26 25 21 23 20 18 18 11 10 10 9 8 7 10 16 20 22 21 18 17 20 15 22 27 34
3 10 18 22 24 25 28 29 27 23 20 10 18 24 24 24 26 26 24 24 22 23 23 23 20 19 17 15 17 14 11 10 10 12 19 20 21 17 19 26 28 31 30 23
5 7 18 24 24 23 25 25 24 12 16 18 20 29 28 22 26 24 24 24 23 22 24 24 22 23 20 18 20 19 16 13 11 13 16 21 22 25 30 33 34 31 20 20
18 15 14 20 21 24 16 13 11 15 15 10 16 31 27 27 22 23 26 28 27 28 27 26 25 23 18 25 25 22 19 15 13 12 14 21 26 30 31 31 30 28 22 24
15 13 9 13 21 17 16 14 6 11 17 21 24 23 17 26 31 29 30 31 32 31 29 28 24 22 28 27 27 22 20 18 15 14 15 16 30 31 32 35 34 32 35 33
11 10 6 8 14 22 20 11 8 12 26 18 7 24 28 23 23 33 24 25 28 27 25 22 25 27 32 33 29 26 21 22 19 17 17 22 32 35 35 34 36 37 37 38
9 9 9 17 19 15 14 14 19 18 15 8 20 21 22 20 15 20 23 15 17 19 20 18 24 26 26 33 29 26 23 24 21 18 17 27 35 37 36 38 38 38 38 35
10 11 14 12 16 12 14 28 16 9 14 21 21 21 23 20 16 27 28 27 23 22 22 31 30 25 19 28 33 25 25 22 20 18 19 30 35 37 43 42 39 41 39 39
8 6 10 8 14 8 24 14 6 6 11 20 23 23 25 25 29 26 26 23 19 18 19 25 17 25 26 25 33 27 25 24 22 18 29 34 37 41 43 45 41 43 42 43
7 8 7 7 10 24 17 16 11 14 16 18 24 23 23 26 29 28 24 8 6 1 8 16 17 19 24 30 31 26 28 26 24 30 34 40 40 40 44 45 44 41 36 50
14 16 9 17 13 22 21 17 19 16 16 21 21 23 23 24 26 18 13 3 3 6 9 15 15 14 14 25 29 29 27 28 29 34 36 40 42 37 36 38 37 42 37 41
16 16 12 19 20 17 18 20 18 19 19 21 21 21 22 20 18 17 12 7 7 7 8 7 4 5 11 21 25 23 21 34 35 35 36 37 38 38 35 30 28 31 30 32
7 11 7 9 16 3 14 20 20 18 21 21 21 21 19 15 15 14 10 8 7 6 8 7 7 10 9 20 21 25 35 42 41 36 37 37 37 37 37 38 35 25 27 34
Wind_Direction
315 290 273 333 323 303 297 289 290 290 296 302 292 295 291 289 282 277 266 260 257 253 252 244 241 237 234 231 225 208 215 217 214 210 207 209 213 207 204 198 195 184 194 193
287 284 349 323 309 294 289 288 288 300 301 315 296 284 287 281 271 259 258 260 257 252 246 238 243 228 236 230 214 213 213 213 214 213 210 204 204 209 205 198 191 188 194 190
303 290 348 296 296 299 298 300 309 310 310 290 281 282 295 305 294 274 275 257 250 252 243 236 232 231 230 225 205 215 211 210 210 216 213 208 209 211 215 194 186 195 195 192
294 276 290 311 306 316 306 319 313 301 303 296 302 291 287 278 272 252 244 249 253 239 236 240 227 227 225 226 218 210 211 211 208 212 209 203 201 200 206 203 194 195 196 191
287 302 310 302 304 332 303 304 300 289 283 289 282 274 292 307 4 339 334 310 275 255 238 228 228 227 218 219 224 201 203 208 214 203 206 208 202 205 204 204 191 190 195 191
277 283 282 303 320 297 295 291 291 297 282 270 274 314 286 320 310 242 260 229 249 289 267 228 218 224 213 218 213 205 195 202 208 206 206 204 207 203 210 212 196 189 192 192
315 293 328 5 283 297 320 313 308 299 277 281 285 312 307 348 313 310 306 310 307 285 281 232 240 219 224 218 216 215 196 191 207 214 208 212 212 213 216 213 202 192 192 192
295 310 316 345 316 303 311 309 305 292 299 308 308 284 287 21 38 356 310 308 261 269 289 339 289 228 236 227 228 225 225 199 203 210 212 212 217 214 214 218 211 204 196 189
319 284 320 300 297 297 288 277 284 279 283 273 272 272 288 33 10 330 354 359 4 238 30 326 303 350 337 324 227 233 231 231 211 205 206 222 220 221 212 217 220 228 197 179
299 305 293 292 315 290 286 302 295 274 282 300 297 319 33 31 261 257 38 313 274 269 205 148 318 86 322 314 297 279 266 233 235 213 202 216 222 223 224 217 216 213 216 171
307 255 286 301 295 311 309 260 241 299 285 285 292 274 357 328 359 358 341 79 302 235 300 310 239 72 332 291 292 275 219 234 237 222 204 205 213 214 220 209 199 190 192 173
12 298 295 298 293 283 267 300 314 296 302 293 294 282 285 303 329 327 312 303 315 317 274 284 278 189 211 294 308 279 287 245 235 225 218 199 215 205 204 206 198 202 165 165
355 268 303 298 304 339 324 300 310 302 295 277 275 282 299 305 308 305 306 304 302 292 275 296 296 245 225 242 263 285 276 278 247 230 219 209 198 212 201 197 188 182 175 151
300 247 257 278 293 310 308 295 282 273 254 279 274 290 302 298 310 317 314 299 292 285 286 278 266 266 253 243 265 268 279 264 277 245 227 211 195 194 191 181 158 147 147 144
243 275 286 290 294 294 286 285 288 294 297 301 307 301 299 302 305 312 294 292 293 289 281 277 272 271 260 254 263 261 262 264 259 263 236 216 189 168 173 153 134 133 126 133
224 259 281 289 285 287 293 300 300 297 316 298 295 292 292 307 310 304 298 298 285 282 284 282 272 267 271 256 255 255 252 256 246 263 236 221 175 158 161 148 151 151 141 146
267 273 290 284 299 305 297 349 316 300 299 294 286 291 304 306 305 307 302 287 281 279 277 275 272 270 256 254 255 248 249 242 240 249 242 223 150 145 153 164 163 167 164 172
269 272 280 289 299 294 321 5 340 307 299 294 290 297 318 310 301 288 280 281 280 276 274 269 266 265 261 255 247 241 233 236 235 239 248 204 148 143 143 146 146 150 145 146
234 271 285 284 296 293 304 6 10 328 301 314 16 314 299 295 296 283 261 261 262 264 265 262 257 254 249 249 236 231 224 231 229 226 227 159 147 139 141 143 140 139 134 128
288 264 269 288 290 305 317 358 349 339 293 348 330 315 306 306 295 283 296 280 267 262 266 260 259 250 244 232 237 221 219 222 220 219 214 157 153 147 142 139 135 137 135 137
300 293 284 297 291 289 306 356 347 317 318 322 319 309 303 296 279 281 288 281 269 257 244 241 240 248 232 227 224 214 215 218 214 214 179 152 153 143 139 136 136 133 134 127
293 289 293 304 302 288 345 345 327 286 313 312 311 307 301 300 294 295 293 290 277 259 228 219 215 227 231 239 209 211 214 217 205 206 151 148 145 140 139 135 134 132 131 119
284 319 293 288 286 300 321 337 349 329 315 308 304 303 304 297 299 300 296 297 337 87 154 186 198 207 223 229 199 202 210 205 205 153 138 140 141 142 141 136 134 131 133 122
293 301 294 305 299 312 331 345 327 325 315 306 301 299 302 299 303 312 344 33 110 145 151 166 191 212 218 185 192 198 197 198 155 140 137 139 136 136 134 134 137 132 140 139
292 294 277 292 308 330 327 325 327 329 316 310 309 308 309 310 318 332 337 62 97 100 105 133 164 197 186 176 180 180 173 143 134 131 131 131 129 127 125 122 131 138 145 151
291 317 315 307 340 291 307 318 339 321 319 317 317 321 323 325 329 333 341 24 70 82 88 80 69 70 100 167 169 149 140 135 130 128 128 130 130 126 124 116 103 120 131 137